Location: Chiroubles
(46.1812°N, 4.6660°E)
Time: 05:43:29
(UTC+00:00)

Transit 4A - Pass Details

Date: 04 December 2020
Orbit: 864 x 980 km, 66.8° (Epoch: 25 January)

Event Time Altitude Azimuth Distance (km) Brightness Sun altitude
Rises 08:37:42 0° 262° (W) 3,658 10.7 11.0°
Reaches altitude 10° 08:40:54 10° 278° (W) 2,725 10.0 11.3°
Maximum altitude 08:45:45 22° 327° (NNW) 1,998 9.2 11.9°
Drops below altitude 10° 08:50:38 10° 17° (NNE) 2,740 10.1 12.4°
Sets 08:53:52 0° 32° (NNE) 3,685 10.8 12.7°
